Inquirer Daily News

Weather

Get conditions and forecasts for any City, State, ZIP code or Country:  
Northeast Philadelphia, PA
on Sunday, December 9, 2012

Sunday
Previous Day Next Day
Daily Summary
 ActualAverage (KTTN)Record (KTTN)
Temperature
Mean Temperature °F 37°F  
Max Temperature 48°F 45°F 69°F (1966)
Min Temperature 42°F 30°F 12°F (2002)
Degree Days
Heating Degree Days 20 28  
Month to date heating degree days 236  
Since 1 July heating degree days 1212  
Cooling Degree Days 0 0  
Month to date cooling degree days 0  
Year to date cooling degree days 965  
Moisture
Dew Point 43°F   
Average Humidity 93    
Maximum Humidity 100    
Minimum Humidity 82    
Precipitation
Precipitation 0.28 in 0.13 in 2.25 in (1978)
Month to date precipitation 1.23  
Year to date precipitation 43.97  
Wind
Wind Speed 5 mph   
Max Wind Speed 13 mph   
Max Gust Speed mph   
Visibility 6 miles   
Events Rain   

Key: T is trace of precipitation, MM is missing value
Source: NWS Daily Summary
Time(EST)TemperatureDew PointHumidity Pressure Visibility Wind DirectionWind SpeedGust SpeedPrecipitationEvents Conditions
12:54 AM 48.0°F 46.9°F 96% 30.05 in 6.0 miles WNW 3.5 mph - N/A   Scattered Clouds
1:54 AM 48.0°F 46.0°F 93% 30.06 in 6.0 miles WNW 3.5 mph - N/A   Overcast
2:23 AM 48.2°F 46.4°F 93% 30.07 in 6.0 miles Calm Calm - N/A   Overcast
2:32 AM 48.2°F 46.4°F 93% 30.07 in 5.0 miles Calm Calm - N/A   Overcast
2:54 AM 48.0°F 46.0°F 93% 30.08 in 4.0 miles Calm Calm - N/A   Overcast
3:10 AM 48.2°F 46.4°F 93% 30.08 in 4.0 miles Calm Calm - N/A   Overcast
3:54 AM 48.0°F 46.0°F 93% 30.09 in 3.0 miles North 4.6 mph - N/A   Overcast
4:02 AM 46.4°F 46.4°F 100% 30.09 in 2.0 miles North 5.8 mph - N/A   Overcast
4:11 AM 46.4°F 46.4°F 100% 30.09 in 1.5 miles North 3.5 mph - N/A   Overcast
4:54 AM 46.9°F 45.0°F 93% 30.11 in 1.2 miles Calm Calm - N/A   Overcast
5:30 AM 46.4°F 46.4°F 100% 30.14 in 2.5 miles NNE 4.6 mph - N/A   Overcast
5:54 AM 46.0°F 45.0°F 96% 30.15 in 2.5 miles NE 3.5 mph - N/A   Scattered Clouds
6:03 AM 46.4°F 44.6°F 93% 30.16 in 3.0 miles NE 4.6 mph - N/A   Partly Cloudy
6:54 AM 46.9°F 45.0°F 93% 30.19 in 5.0 miles NNE 5.8 mph - N/A   Overcast
7:54 AM 46.9°F 44.1°F 90% 30.20 in 7.0 miles NNE 9.2 mph - 0.00 in   Overcast
8:54 AM 46.0°F 41.0°F 83% 30.24 in 9.0 miles NE 6.9 mph - 0.01 in Rain Light Rain
9:54 AM 46.0°F 42.1°F 86% 30.24 in 10.0 miles NE 8.1 mph - 0.02 in Rain Light Rain
10:33 AM 46.4°F 42.8°F 87% 30.25 in 6.0 miles NNE 5.8 mph - 0.04 in Rain Light Rain
10:54 AM 45.0°F 42.1°F 90% 30.24 in 8.0 miles NNE 9.2 mph - 0.06 in Rain Light Rain
11:31 AM 44.6°F 42.8°F 93% 30.22 in 8.0 miles NE 8.1 mph - 0.01 in Rain Light Rain
11:54 AM 45.0°F 43.0°F 93% 30.21 in 6.0 miles NE 10.4 mph - 0.02 in Rain Light Rain
12:13 PM 44.6°F 42.8°F 93% 30.20 in 10.0 miles NE 8.1 mph - 0.01 in Rain Light Rain
12:31 PM 44.6°F 42.8°F 93% 30.19 in 6.0 miles NE 10.4 mph - 0.01 in Rain Light Rain
12:54 PM 46.0°F 44.1°F 93% 30.19 in 7.0 miles NE 9.2 mph - 0.02 in Rain Light Rain
1:54 PM 45.0°F 43.0°F 93% 30.19 in 6.0 miles ENE 12.7 mph - 0.00 in Rain Light Rain
2:10 PM 44.6°F 42.8°F 93% 30.18 in 4.0 miles ENE 11.5 mph - 0.00 in Rain Light Rain
2:36 PM 44.6°F 42.8°F 93% 30.19 in 8.0 miles ENE 6.9 mph - 0.00 in Rain Light Rain
2:54 PM 44.1°F 39.0°F 82% 30.19 in 10.0 miles East 10.4 mph - 0.00 in Rain Light Rain
3:54 PM 43.0°F 39.0°F 86% 30.19 in 10.0 miles East 10.4 mph - 0.01 in Rain Light Rain
4:52 PM 42.8°F 39.2°F 87% 30.19 in 10.0 miles ENE 9.2 mph - 0.00 in   Overcast
4:54 PM 43.0°F 39.0°F 86% 30.19 in 10.0 miles East 9.2 mph - 0.00 in   Overcast
5:30 PM 42.8°F 39.2°F 87% 30.18 in 10.0 miles ENE 6.9 mph - N/A   Overcast
5:54 PM 42.1°F 39.9°F 92% 30.18 in 2.5 miles ENE 8.1 mph - N/A   Overcast
6:54 PM 42.1°F 41.0°F 96% 30.16 in 3.0 miles NE 6.9 mph - 0.01 in Rain Light Rain
7:24 PM 42.8°F 41.0°F 93% 30.15 in 2.5 miles NE 9.2 mph - 0.03 in Rain Rain
7:31 PM 42.8°F 41.0°F 93% 30.15 in 3.0 miles ENE 8.1 mph - 0.04 in Rain Rain
7:54 PM 42.1°F 41.0°F 96% 30.14 in 6.0 miles ENE 9.2 mph - 0.05 in Rain Light Rain
8:54 PM 43.0°F 42.1°F 97% 30.09 in 4.0 miles NE 5.8 mph - 0.00 in   Overcast
9:05 PM 42.8°F 42.8°F 100% 30.08 in 3.0 miles ENE 9.2 mph - N/A   Overcast
9:54 PM 44.1°F 43.0°F 96% 30.08 in 4.0 miles Calm Calm - 0.00 in Rain Light Rain
10:54 PM 44.1°F 43.0°F 96% 30.05 in 8.0 miles North 5.8 mph - 0.05 in Rain Light Rain
11:17 PM 44.6°F 42.8°F 93% 30.03 in 4.0 miles NNE 4.6 mph - 0.01 in Rain Light Rain
11:54 PM 44.1°F 43.0°F 96% 30.02 in 10.0 miles North 4.6 mph - 0.03 in   Overcast
Astronomy
Sunrise:07:10 AM (EST) Moon Rise:02:40 AM (EST)12/9
Sunset:04:34 PM (EST) Moon Set:01:39 PM (EST)12/9
Moon Phase
Dec. 09 Dec. 13 Dec. 20 Dec. 28 Jan. 04

Copyright © 2014 The Weather Underground, Inc.